Simultaneous Nadir Overpasses (SNOs) Predictions

Prediction of SNOs between AQUA and GOES-15 Satellite Orbit:

Table of predicted SNOs for the next 14.0 days since TLE Epoch: 5/13/2023
Index Date Time (AQUA) AQUA Lat,Lon GOES-15 Lat,Lon Distance(km) Time Diff (sec)
1 05/14/2023 23:36:37 0.07,-147.10 -0.08,-147.76 75.03 80
2 05/15/2023 11:57:26 0.93,-152.15 0.05,-148.01 470.68 80
3 05/17/2023 11:43:29 0.04,-148.77 0.06,-148.92 16.42 80
4 05/19/2023 23:50:29 -0.12,-150.49 -0.04,-150.03 51.07 80
5 05/21/2023 23:36:30 0.75,-147.10 -0.05,-150.93 435.04 80
6 05/22/2023 11:57:19 0.22,-152.15 0.02,-151.18 111.08 80
7 05/24/2023 11:43:20 -0.69,-148.77 0.04,-152.06 374.62 80
8 05/25/2023 00:04:15 -0.33,-153.85 -0.01,-152.27 179.68 80
9 05/26/2023 23:50:15 0.58,-150.46 -0.02,-153.14 306.00 80
